Regional Weather Roundup
Issued by NWS

Home | Current Version | Previous Version | Graphics & Text | Print | Product List | Glossary On
Versions: 1 2 3 4 5 6 7 8 9 10 11 12 13 14 15 16 17 18 19 20 21 22 23 24 25 26 27 28 29 30 31 32 33 34 35 36 37 38 39 40 41 42 43 44 45 46 47 48 49 50
000
ASUS43 KMKX 270321
RWRWI

WISCONSIN REGIONAL WEATHER ROUNDUP
NATIONAL WEATHER SERVICE MILWAUKEE/SULLIVAN WI
900 PM CST MON JAN 26 2015

NOTE: "FAIR" INDICATES FEW OR NO CLOUDS BELOW 12,000 FEET WITH NO
SIGNIFICANT WEATHER AND/OR OBSTRUCTIONS TO VISIBILITY.

WIZ001-002-006>008-014>016-023>028-270400-
NORTHWEST WISCONSIN

CITY           SKY/WX    TMP DP  RH WIND       PRES   REMARKS
SUPERIOR ARPT  CLOUDY    31  26  82 N8        29.94R WCI  23
ASHLAND        CLOUDY    24  23  96 NW3       29.92R
HAYWARD        CLOUDY    28  24  85 N5        29.89R WCI  23
SIREN          CLOUDY    33  32  98 N7        29.90S WCI  26
CUMBERLAND     CLOUDY    32  30  93 N9        29.88R WCI  24
RICE LAKE      CLOUDY    28  26  94 CALM      29.90R FOG
CHETEK         CLOUDY    26  25  96 CALM      29.89R FOG
LADYSMITH      CLOUDY    24  23  94 CALM      29.89R
EAU CLAIRE     LGT SNOW  27  24  89 CALM      29.89R FOG
MENOMONIE      CLOUDY    30  28  94 NE5       29.89R FOG     WCI  25
NEW RICHMOND   CLOUDY    36  30  79 N10       29.90R WCI  28
OSCEOLA        CLOUDY    37  31  79 N7        29.93R WCI  31
$$

WIZ003>005-009-010-017-018-270400-
NORTH CENTRAL WISCONSIN

CITY           SKY/WX    TMP DP  RH WIND       PRES   REMARKS
MANITOWISH WTR CLOUDY    19  17  93 CALM      29.86R
ARBOR VITAE    CLOUDY    20  18  89 CALM      29.86R
WOODRUFF       CLOUDY    20  18  89 CALM      29.86R
RHINELANDER    CLOUDY    19  16  88 SE3       29.85F
EAGLE RIVER    FLURRIES  19  16  86 CALM      29.85S
LAND O LAKES   CLOUDY    19  17  91 CALM      29.87R
PHILLIPS       CLOUDY    20  18  93 CALM      29.85R
TOMAHAWK       CLOUDY    19  17  91 CALM      29.87R
MEDFORD        CLOUDY    21  19  93 CALM      29.86R
MERRILL        CLOUDY    21  19  93 CALM      29.87R
$$

WIZ029-030-035-036-043>047-270400-
CENTRAL WISCONSIN

CITY           SKY/WX    TMP DP  RH WIND       PRES   REMARKS
WAUSAU         CLOUDY    21  19  92 NE3       29.87R
MOSINEE        CLOUDY    21  21 100 E3        29.87R
MARSHFIELD     CLOUDY    24  21  88 CALM      29.87R
STEVENS POINT  CLOUDY    20  19  96 CALM      29.89R
WAUPACA        LGT SNOW  26  23  89 CALM      29.89R
WAUTOMA        CLOUDY    23  23 100 CALM      29.90R
WISC RAPIDS    CLOUDY    23  20  88 CALM      29.90R
CAMP DOUGLAS   FLURRIES  25  25 100 E2        29.87R
$$

WIZ011>013-019>022-031-037>040-048>050-270400-
NORTHEAST WISCONSIN

CITY           SKY/WX    TMP DP  RH WIND       PRES   REMARKS
ANTIGO         CLOUDY    20  19  95 SE5       29.86S WCI  13
SHAWANO        LGT SNOW  26  23  89 CALM      29.92R VSB 1
OCONTO         CLOUDY    25  24  94 CALM      29.93R
STURGEON BAY   CLOUDY    23  18  80 SE8       29.96R WCI  14
GREEN BAY      LGT SNOW  24  22  91 SE3       29.91S FOG
MANITOWOC      MIX PCPN  26  21  81 SE15      29.93R WCI  14
APPLETON       LGT SNOW  25  23  93 SE7       29.89S WCI  17
CLINTONVILLE   LGT SNOW  25  23  93 E3        29.90R
OSHKOSH        LGT SNOW  24  21  88 SE3       29.90R FOG
$$

WIZ032>034-041-042-053>061-270400-
SOUTHWEST WISCONSIN

CITY           SKY/WX    TMP DP  RH WIND       PRES   REMARKS
LA CROSSE      CLOUDY    31  27  85 CALM      29.89R
SPARTA         CLOUDY    27  26  99 CALM      29.89R FOG
VIROQUA        CLOUDY    26  26 100 CALM      29.85R
BOSCOBEL       CLOUDY    27  24  89 CALM      29.88S FOG
PRAIRIE DU CHI CLOUDY    29  26  87 CALM      29.87S FOG
PLATTEVILLE    MOCLDY    26  25  96 CALM      29.86R
$$

WIZ056-057-062-063-064-067-068-270400-
SOUTH CENTRAL WISCONSIN

CITY           SKY/WX    TMP DP  RH WIND       PRES   REMARKS
REEDSBURG      LGT SNOW  24  22  95 CALM      29.87R
BARABOO/DELLS  LGT SNOW  23  21  93 CALM      29.87R
LONE ROCK      CLOUDY    25  22  88 E5        29.88S WCI  19
MINERAL POINT  CLOUDY    27  27 100 CALM      29.85R FOG
MADISON        LGT SNOW  24  22  91 S6        29.87S FOG     WCI  17
MIDDLETON      CLOUDY    26  25  96 CALM      29.87S
WATERTOWN      LGT SNOW  24  24 100 SE3       29.88S
MONROE         LGT SNOW  25  25 100 SE3       29.85S
JANESVILLE     CLOUDY    27  27 100 CALM      29.88S FOG
$$

WIZ051-052-058>065-066-070>072-270400-
SOUTHEAST WISCONSIN

CITY           SKY/WX    TMP DP  RH WIND       PRES   REMARKS
MILWAUKEE      LGT SNOW  26  22  84 SW5       29.91R WCI  20
WAUKESHA       LGT SNOW  23  23 100 CALM      29.90S
MILWAUKEE/TIMM FLURRIES  27  21  80 S3        29.91S
RACINE         CLOUDY    26  23  88 SW3       29.92S FOG
BURLINGTON     CLOUDY    24  23  96 S3        29.90R FOG
KENOSHA        LGT SNOW  26  24  92 S3        29.90R FOG
FOND DU LAC    LGT SNOW  25  21  85 SE3       29.90R FOG
SHEBOYGAN      FLURRIES  26  22  84 CALM      29.92R
WEST BEND      CLOUDY    25  21  86 CALM      29.90R
JUNEAU         FLURRIES  24  23  95 SE5       29.89S WCI  18
$$

LSZ147-162-270400-
LAKE SUPERIOR

STATION/POSITION TIME  TEMP    WIND        PRES    WAVE
                       AIR SEA DIR/SP/G            HT/PER
                 (UTC) (F)     (DEG/KT/KT) (MB)    (FT/S)
DEVILS ISLAND    0300   28      20/  8/  9 1014.0R
PORT WING        0240   27     110/  1/  1 1013.5R
SAXON HARBOR     0200   24        CALM     1012.2R
$$

LMZ867-665-643>646-270400-
LAKE MICHIGAN

STATION/POSITION TIME  TEMP    WIND        PRES    WAVE
                       AIR SEA DIR/SP/G            HT/PER
                 (UTC) (F)     (DEG/KT/KT) (MB)    (FT/S)
NORTHPORT PIER   0221   24     130/ 10/ 15 1014.6R
SISTER BAY       0213   25     120/  9/ 13   N/A
KEWAUNEE LAKESHO 0200   27     160/ 13/ 18 1012.5R
SHEBOYGAN LAKESH 0300   27     130/ 17/ 17 1014.4R
PORT WASHINGTON  0240   27     220/  4/  6 1013.9R
MILWAUKEE LAKESH 0300   27     240/  5/  6   N/A
KENOSHA   LAKESH 0300   26     220/  5/  8 1013.2R
$$

TC  - TEMPERATURE IN CELSIUS
VSB - VISIBILITY IN STATUTE MILES
WCI - WIND CHILL INDEX
HX  - HEAT INDEX




USA.gov is the U.S. government's official web portal to all federal, state and local government web resources and services.